Wind_Speed
14 15 16 17 16 16 15 16 16 17 17 19 20 20 20 22 9 5 6 5 3 5 8 8 11 13 12 16 15 16 8 9 8 6 19 9 16 13 10 10 11 7 9 18 20
15 16 17 18 17 17 17 18 17 18 18 18 19 19 20 22 7 16 4 3 7 7 9 13 12 13 12 13 11 6 4 9 13 6 17 6 17 6 13 9 10 10 14 19 19
15 17 18 20 19 18 19 19 19 19 19 18 18 19 20 16 10 9 4 4 6 8 10 10 14 12 15 14 11 10 6 7 8 7 5 15 12 6 12 8 11 13 15 16 17
15 17 19 20 20 19 20 20 19 20 20 19 18 17 19 4 3 7 4 6 6 6 10 13 13 14 19 12 3 12 4 5 9 7 4 3 14 11 6 9 10 15 16 15 15
17 16 19 21 19 20 22 20 20 21 20 19 17 15 8 9 2 6 4 2 5 9 13 13 16 17 21 6 5 15 5 4 6 5 3 4 4 9 5 9 11 15 15 15 14
17 18 19 20 21 22 21 21 21 21 19 17 13 12 7 12 3 3 2 5 6 9 9 12 12 9 15 7 9 3 3 4 6 9 5 10 10 8 12 11 14 15 15 13 13
17 18 19 20 22 22 22 22 22 20 16 12 9 7 10 8 1 4 5 7 4 6 8 3 7 12 12 9 4 7 12 12 11 10 8 9 1 14 14 14 15 15 14 13 12
18 19 19 21 23 23 22 23 20 17 12 8 6 7 10 2 4 8 8 9 9 9 8 5 8 13 10 5 8 15 18 14 14 8 6 8 16 44 16 14 14 15 14 14 13
18 19 19 20 23 23 23 21 18 11 8 5 6 7 9 3 9 10 9 10 9 10 9 8 12 14 12 13 17 15 3 15 13 3 4 9 4 12 12 13 13 14 14 14 14
18 19 20 20 22 22 22 18 14 10 7 7 10 8 8 5 3 4 7 8 9 8 9 12 11 14 14 16 16 13 12 23 2 5 8 11 10 9 8 11 13 15 14 14 14
18 19 21 20 20 20 21 9 7 7 12 14 4 11 2 4 5 10 9 11 11 11 13 14 13 17 21 18 21 14 11 8 2 5 9 12 12 8 13 7 10 13 15 14 15
19 20 20 20 19 13 12 7 7 6 9 12 13 12 7 4 6 9 10 10 12 14 14 7 15 19 20 11 10 10 10 10 6 2 9 7 10 10 2 7 7 12 15 16 16
19 20 20 18 15 5 7 4 7 7 7 11 12 14 14 14 13 12 13 14 10 13 14 14 10 19 6 10 11 14 15 12 9 8 11 8 12 9 9 6 6 8 12 16 17
19 19 20 17 6 4 6 3 7 4 6 13 10 9 9 10 16 15 15 9 9 11 13 12 13 5 9 15 15 16 16 15 5 9 13 8 7 12 13 11 11 9 11 12 17
20 20 16 12 13 8 4 5 4 4 6 7 11 5 8 14 3 16 14 12 12 12 6 14 13 10 14 17 15 16 4 8 12 13 15 9 7 6 7 7 7 2 0 11 17
20 19 14 4 6 8 5 6 5 7 10 8 8 11 14 17 13 6 13 13 10 10 10 19 3 13 17 15 11 14 7 7 10 13 13 12 11 7 3 8 4 8 4 10 15
20 17 12 7 1 3 6 8 7 10 4 9 11 12 16 16 20 14 16 17 13 11 13 14 12 12 12 7 13 11 13 9 11 12 12 4 3 8 6 8 4 5 7 9 13
20 12 7 10 6 6 8 9 11 12 21 3 2 9 10 14 18 18 15 16 19 16 13 12 14 17 13 18 12 15 17 11 12 8 5 8 5 4 9 6 5 7 8 12 11
11 4 9 5 7 7 8 12 12 12 5 4 11 13 15 8 12 19 19 18 18 18 12 6 15 17 16 15 17 16 16 18 11 11 9 8 11 10 8 8 5 10 10 10 10
6 8 6 3 6 10 9 16 10 4 6 6 15 12 14 15 14 16 17 17 17 16 14 9 10 11 14 9 9 13 7 12 8 11 12 8 2 8 9 10 10 10 9 9 9
7 5 6 5 7 8 11 17 14 4 5 9 11 8 13 4 8 15 12 12 15 14 12 16 8 11 11 13 15 11 12 10 15 7 6 6 6 13 9 12 11 8 8 9 9
8 3 7 8 7 10 12 13 5 7 9 9 6 10 9 5 10 15 13 6 13 13 18 18 8 13 13 15 20 20 16 16 10 12 7 11 1 9 11 8 10 9 7 4 4
4 3 6 10 6 8 7 4 8 8 11 7 9 5 1 6 4 10 9 9 1 12 11 14 10 12 16 10 8 12 16 10 12 11 12 7 6 10 10 11 8 10 7 5 4
4 5 5 7 7 10 8 10 12 9 12 8 8 7 7 10 9 6 8 4 6 11 10 7 12 13 12 15 13 19 18 18 16 13 11 13 11 5 8 12 9 9 7 7 5
4 1 5 6 8 7 1 3 9 9 10 7 11 15 14 10 11 11 13 9 9 5 8 9 12 16 19 18 14 10 15 18 17 18 17 2 15 4 9 11 10 8 7 6 5
5 4 5 2 1 7 6 6 6 3 5 10 13 13 17 15 14 8 9 6 10 14 11 16 13 15 18 18 19 13 15 7 14 19 22 8 14 4 10 9 8 7 6 5 4
3 4 5 8 7 9 5 5 1 3 9 12 8 8 7 10 9 12 7 11 12 9 8 12 13 14 17 18 19 18 16 14 11 11 11 11 20 15 14 9 7 6 5 4 3
Wind_Direction
2 359 357 356 353 349 349 344 342 343 343 341 341 340 337 335 321 214 212 105 187 207 206 205 210 224 238 255 251 277 49 306 101 90 110 144 91 71 104 110 58 50 52 123 141
354 351 350 349 347 343 345 341 339 339 338 339 338 337 335 333 290 235 82 210 211 215 209 204 210 217 228 241 242 174 154 249 43 65 97 63 92 121 110 121 115 102 98 125 148
348 346 347 345 342 340 340 338 337 335 334 336 337 334 333 329 263 101 94 164 174 194 252 245 251 211 237 256 227 244 215 108 119 44 311 124 128 156 131 127 128 139 141 148 154
345 342 342 341 337 335 335 334 332 330 330 331 333 332 326 260 263 88 113 147 159 213 235 224 234 225 248 231 223 267 59 337 83 132 163 144 105 118 60 71 116 136 151 155 164
345 339 337 336 333 330 329 328 327 326 326 327 331 332 326 232 75 114 134 188 221 224 231 221 221 227 246 249 204 250 155 173 152 112 27 94 142 94 153 122 127 141 156 162 167
342 337 335 331 329 326 324 324 324 322 323 323 327 327 267 264 52 103 184 223 244 238 214 230 251 284 295 259 246 96 239 189 191 117 194 234 159 176 136 144 144 155 164 171 168
338 336 332 330 327 324 320 322 321 317 318 318 319 323 269 273 294 255 229 242 239 277 259 204 282 257 253 239 248 225 233 199 191 170 205 246 133 178 129 160 162 165 171 171 171
336 333 329 326 324 320 318 318 316 316 312 312 308 277 276 136 245 246 239 240 224 235 253 268 276 267 268 346 225 242 239 228 150 173 210 252 133 257 147 170 174 174 175 173 175
332 329 325 324 322 320 316 315 311 307 306 302 276 241 270 138 217 220 223 250 209 232 228 273 263 248 219 244 232 217 66 302 178 141 327 254 250 109 146 170 179 183 183 177 175
330 328 324 322 322 321 314 306 288 277 275 251 262 264 221 230 146 244 229 246 253 236 230 222 235 236 233 226 239 226 208 199 226 143 215 249 266 143 157 184 188 188 190 183 182
329 325 324 323 325 324 323 304 221 198 220 256 59 255 166 217 220 221 204 217 238 237 243 202 227 228 236 232 264 321 226 3 55 83 261 265 245 246 153 197 197 185 188 193 189
327 325 325 326 324 320 305 294 26 339 297 260 248 255 268 258 240 227 200 219 210 236 214 222 230 241 234 309 261 275 274 258 226 213 285 261 241 224 138 197 219 187 189 199 191
327 326 327 326 318 280 293 19 327 307 258 257 222 233 220 210 237 213 205 214 227 232 237 243 243 218 240 233 253 249 261 257 256 173 244 274 252 185 206 210 195 274 192 192 208
326 326 329 324 292 319 238 319 318 287 268 185 204 221 200 223 230 239 197 222 225 248 228 245 246 233 237 241 227 254 244 257 254 248 260 202 284 189 191 189 187 233 204 198 194
326 324 326 322 308 247 32 317 312 250 267 127 136 96 213 204 102 186 199 205 245 208 255 224 236 202 232 228 237 251 289 222 241 262 269 252 240 112 176 231 182 101 272 176 178
322 319 319 278 238 266 287 299 248 231 244 154 159 196 196 211 223 130 199 229 238 249 210 265 216 227 233 232 243 243 248 244 253 254 257 227 264 275 306 114 132 109 143 158 169
320 311 289 263 334 286 276 238 225 237 157 213 197 198 207 193 217 195 192 204 215 211 220 217 214 232 246 212 219 230 221 221 220 226 242 71 251 289 94 77 25 93 156 164 157
319 303 276 221 257 272 242 220 242 233 242 76 272 196 229 219 200 204 212 208 219 223 258 213 203 209 184 234 193 219 238 248 259 266 255 148 229 205 79 110 130 175 181 143 155
318 258 224 196 226 225 229 223 217 252 295 162 215 240 214 215 235 211 216 220 214 225 245 238 242 187 204 211 250 193 228 257 294 277 284 286 157 150 156 132 140 127 149 140 135
294 234 145 222 193 212 227 241 227 337 342 268 252 216 232 191 196 227 204 228 227 200 225 269 273 176 182 242 231 271 221 234 235 273 266 276 131 109 163 165 129 137 136 138 149
243 231 117 175 187 213 219 231 239 143 281 275 259 271 256 313 218 225 221 217 226 216 215 236 239 199 176 203 218 207 246 246 276 301 300 243 233 116 111 121 125 134 141 156 151
276 234 139 177 201 216 220 233 11 252 216 256 283 298 291 244 251 253 219 219 183 251 203 227 226 253 203 224 223 245 217 232 244 232 263 295 69 152 111 119 138 124 138 135 158
256 91 172 207 231 204 209 237 232 238 239 232 237 238 261 265 257 272 239 76 139 248 219 219 230 240 251 178 220 250 249 254 244 256 276 271 265 134 126 128 129 138 143 148 149
275 184 154 212 282 298 196 228 213 210 266 256 267 280 263 248 237 274 244 223 228 249 353 290 238 239 245 228 239 196 235 244 240 250 234 240 132 139 154 142 143 145 154 150 151
241 343 6 202 198 220 232 350 232 221 213 225 230 237 245 249 253 236 242 259 192 197 246 240 244 249 257 272 288 276 202 223 230 243 239 36 12 124 158 138 141 147 150 161 168
307 310 190 102 345 234 145 194 267 219 261 226 235 256 218 228 255 271 311 232 246 177 225 223 235 251 256 253 261 248 253 253 214 229 237 213 151 286 321 94 124 144 163 172 161
356 262 277 123 197 232 152 81 68 317 243 264 319 280 217 246 311 308 337 317 295 298 251 228 236 239 247 242 246 237 247 212 225 233 257 239 132 172 210 121 135 148 153 142 122
Height
817 816 814 812 810 808 805 802 799 796 793 789 786 782 778 775 772 771 766 768 769 770 770 769 768 765 762 753 744 737 825 804 753 770 755 737 754 748 747 759 761 762 762 769 784
817 815 814 811 808 806 803 801 798 795 792 789 785 782 778 774 771 763 767 768 768 768 769 765 763 762 758 748 740 756 829 780 735 737 745 744 747 752 753 762 768 770 772 779 785
818 816 813 810 806 804 801 798 796 793 790 787 784 781 777 773 769 759 765 767 767 767 766 761 756 754 758 738 736 737 766 736 739 735 733 741 745 740 750 764 761 771 775 780 784
818 816 812 809 806 803 800 797 794 791 788 786 783 779 775 775 777 763 766 767 767 767 765 761 756 757 757 750 734 747 737 735 736 736 739 741 736 747 746 756 751 761 770 777 782
819 816 813 809 805 803 799 795 792 789 786 783 780 778 774 765 757 763 765 766 766 764 759 755 754 752 753 737 739 743 738 735 734 737 735 735 742 744 749 748 753 762 769 774 778
819 816 811 808 805 801 797 794 790 787 784 782 779 777 774 772 761 763 764 764 761 758 753 752 746 738 743 740 744 733 738 735 733 737 738 743 742 745 744 747 756 763 769 772 775
818 815 811 807 804 799 796 791 788 785 782 780 778 777 769 761 761 762 762 760 760 757 750 752 750 747 736 744 733 736 750 737 735 735 737 737 752 751 742 746 757 762 767 770 774
816 813 809 806 803 798 793 789 786 782 781 779 777 777 765 759 761 761 759 758 759 757 756 753 750 744 741 732 741 748 741 754 735 734 732 743 830 768 736 747 758 761 765 769 774
817 813 810 805 801 796 791 786 783 780 779 778 776 771 762 758 758 756 756 755 753 754 753 754 750 746 741 757 757 743 770 776 754 735 738 744 753 734 731 744 756 760 763 768 774
817 813 808 805 800 794 789 785 781 779 777 778 775 774 755 754 754 755 755 758 754 749 751 753 752 757 753 755 778 760 756 755 761 744 744 750 749 733 732 738 747 754 761 766 771
816 812 807 803 797 794 788 781 777 775 770 758 754 752 754 754 757 754 753 755 752 753 763 748 764 770 753 744 736 742 757 754 747 741 754 750 745 736 731 736 741 748 757 763 766
814 810 805 800 796 793 790 778 782 786 773 752 753 753 754 756 755 749 752 757 756 767 752 759 773 747 737 741 743 751 759 762 746 745 751 745 750 733 732 735 734 739 748 758 759
813 808 804 800 796 793 789 786 787 786 775 748 746 749 750 752 753 745 748 747 755 762 755 767 748 736 750 754 762 758 762 758 761 747 744 749 758 744 735 732 734 736 734 744 752
812 807 803 798 798 791 786 789 788 787 780 753 752 746 746 746 753 740 741 744 751 761 754 755 738 753 758 763 755 772 743 749 754 764 775 743 783 758 737 741 737 734 733 738 747
809 805 802 800 796 790 790 789 787 784 801 744 745 741 735 748 735 740 738 741 757 756 756 760 753 759 764 757 747 761 734 748 755 762 760 754 769 752 739 749 739 735 736 734 740
807 804 800 798 797 792 790 789 787 795 795 754 738 746 750 744 738 737 742 738 737 750 750 748 734 743 747 741 742 736 752 754 755 760 784 762 764 763 748 743 739 736 739 736 739
804 800 798 797 789 792 791 786 793 792 741 751 747 739 742 745 747 745 753 758 764 779 774 757 753 742 737 753 745 749 763 791 797 787 785 749 770 760 743 738 737 740 738 738 739
799 795 794 793 792 792 790 787 798 758 751 735 739 736 747 735 741 742 749 757 746 747 753 768 777 749 737 747 755 758 756 776 801 786 773 755 782 762 735 732 734 735 733 737 741
796 793 791 789 791 791 785 790 777 755 745 746 743 754 744 736 739 743 748 746 738 740 767 758 761 725 731 733 736 752 769 740 764 756 776 757 750 739 734 736 737 738 738 742 743
795 787 783 789 789 788 784 781 757 753 754 754 765 741 751 741 750 743 745 734 735 728 734 743 769 733 734 731 731 742 733 770 765 799 797 766 762 765 751 744 745 746 748 749 748
794 777 784 787 788 782 782 767 756 755 760 760 753 749 745 742 740 740 742 731 726 727 730 739 754 742 735 753 752 754 758 749 744 754 776 787 763 727 738 736 743 748 748 749 750
783 775 782 785 784 771 770 759 781 764 759 759 757 752 750 744 750 743 742 730 717 724 742 735 746 762 751 730 727 729 743 749 772 779 764 769 774 725 733 735 740 748 751 750 749
773 770 781 781 778 768 761 767 768 766 763 760 760 754 749 754 767 744 736 725 727 730 734 733 754 772 764 741 736 747 739 736 741 750 770 779 769 727 732 739 741 751 753 755 754
776 773 773 775 766 768 763 770 770 763 764 759 761 754 760 761 751 754 745 732 731 731 742 734 744 759 761 751 731 751 748 740 747 764 763 760 767 750 742 746 751 753 753 754 755
773 766 768 770 768 767 771 768 770 769 764 759 765 764 763 768 759 755 745 734 735 744 739 740 764 752 742 734 728 727 738 740 749 747 758 754 770 758 746 740 749 751 755 757 758
781 772 770 767 773 773 782 771 770 763 768 764 768 752 751 765 760 752 744 737 739 731 743 737 761 751 751 736 733 742 730 731 735 737 739 737 767 768 757 742 750 755 757 760 760
790 785 778 779 771 768 762 769 769 768 761 758 756 756 758 756 748 742 740 741 740 747 743 745 750 759 765 738 739 754 737 731 734 728 734 749 757 769 764 753 757 757 756 760 761